DW9727 Weather Reports


Display with metric or nautical units.
time (UTC)temp
F
wind
direction
speed
MPH
gust
MPH
rain 1hr
in
rain 24hr
in
rain mn
in
humidity
%
barometer
mb
20260505222711 56 17 9.0 21.0 0.00 0.01 0.01 38 1012.5
20260505220710 58 313 10.0 22.0 0.00 0.01 0.01 36 1012.4
20260505215710 58 298 13.0 20.0 0.00 0.01 0.01 38 1012.4
20260505214710 58 325 16.0 23.0 0.00 0.01 0.01 36 1012.2
20260505212710 58 335 14.0 24.0 0.00 0.01 0.01 37 1012.4
20260505211710 59 23 10.0 20.0 0.00 0.01 0.01 35 1012.3
20260505210710 60 327 12.0 18.0 0.00 0.01 0.01 39 1012.5
20260505205710 60 34 13.0 21.0 0.00 0.01 0.01 36 1012.4
20260505203710 60 286 13.0 17.0 0.00 0.01 0.01 40 1012.5
20260505200710 58 9 9.0 16.0 0.00 0.01 0.01 40 1012.9
20260505195710 58 315 4.0 17.0 0.00 0.01 0.01 40 1013.0
20260505194711 60 315 10.0 18.0 0.00 0.01 0.01 44 1013.1
20260505192710 60 264 10.0 16.0 0.00 0.01 0.01 44 1013.3
20260505191711 59 35 7.0 12.0 0.00 0.01 0.01 47 1013.3
20260505190711 59 327 7.0 16.0 0.00 0.01 0.01 42 1013.4
20260505185711 59 317 7.0 14.0 0.00 0.01 0.01 45 1013.3
20260505184711 57 325 7.0 13.0 0.00 0.01 0.01 44 1013.3
20260505182710 56 324 9.0 13.0 0.00 0.01 0.01 45 1013.5
20260505175710 56 309 6.0 14.0 0.00 0.01 0.01 51 1013.7
20260505174710 56 13 5.0 12.0 0.00 0.01 0.01 45 1013.8
20260505173710 55 308 4.0 12.0 0.00 0.01 0.01 49 1013.9
20260505172710 55 306 8.0 15.0 0.00 0.01 0.01 48 1014.2
20260505171711 55 288 5.0 12.0 0.00 0.01 0.01 45 1014.1
20260505170710 53 336 3.0 8.0 0.00 0.01 0.01 48 1014.0
20260505165710 54 298 5.0 9.0 0.00 0.01 0.01 56 1014.0
20260505163710 51 336 5.0 9.0 0.00 0.01 0.01 54 1014.0
20260505162710 52 336 5.0 12.0 0.00 0.01 0.01 56 1014.2
20260505161710 52 315 3.0 8.0 0.00 0.01 0.01 53 1014.1
20260505160710 51 297 3.0 6.0 0.00 0.01 0.01 55 1014.1
20260505152710 51 52 3.0 8.0 0.00 0.01 0.01 55 1013.3
20260505151710 51 15 2.0 7.0 0.00 0.01 0.01 60 1013.3
20260505150710 50 322 5.0 9.0 0.00 0.01 0.01 60 1013.3
20260505124711 44 325 2.0 3.0 0.00 0.01 0.01 73 1011.6
20260505122711 44 327 2.0 5.0 0.00 0.01 0.01 73 1011.3
20260505121710 44 323 2.0 3.0 0.00 0.01 0.01 73 1011.1
20260505120710 44 329 2.0 3.0 0.00 0.01 0.01 74 1010.9
20260505115710 44 9 1.0 2.0 0.00 0.01 0.01 72 1010.6
20260505114710 44 13 0.0 2.0 0.00 0.01 0.01 70 1010.4
20260505113711 44 15 1.0 3.0 0.00 0.01 0.01 68 1010.3
20260505112711 44 5 1.0 3.0 0.00 0.01 0.01 68 1010.1
20260505111711 45 17 2.0 3.0 0.00 0.01 0.01 68 1010.3
20260505101710 46 16 2.0 3.0 0.00 0.01 0.01 70 1010.1
20260505100710 46 9 1.0 3.0 0.00 0.01 0.01 68 1010.3
20260505095710 47 9 1.0 5.0 0.00 0.01 0.01 67 1010.2
20260505094710 47 17 3.0 6.0 0.00 0.01 0.01 67 1010.1
20260505093711 47 28 2.0 5.0 0.00 0.01 0.01 68 1010.1
20260505091710 47 30 3.0 8.0 0.00 0.01 0.01 76 1010.1
20260505090711 47 336 2.0 6.0 0.00 0.01 0.01 82 1010.1
20260505085711 47 42 2.0 2.0 0.00 0.01 0.01 82 1009.9
20260505083711 48 42 1.0 2.0 0.00 0.01 0.01 81 1009.6
20260505082710 48 42 1.0 2.0 0.00 0.01 0.01 81 1009.5
20260505080711 48 42 0.0 2.0 0.00 0.01 0.01 80 1009.3
20260505075710 49 42 0.0 1.0 0.00 0.01 0.01 79 1009.4
20260505074710 49 42 0.0 2.0 0.00 0.01 0.01 79 1009.5
20260505072711 49 42 0.0 2.0 0.00 0.01 0.01 79 1009.2
20260505071710 49 42 0.0 1.0 0.00 0.01 0.01 79 1009.0
20260505070711 49 42 0.0 2.0 0.00 0.01 0.01 79 1008.9
20260505065711 49 42 1.0 1.0 0.00 0.01 0.01 78 1008.8
20260505064712 49 42 0.0 0.0 0.00 0.01 0.01 76 1008.8
20260505063711 49 42 0.0 0.0 0.01 0.01 0.01 76 1008.6
20260505062710 49 42 0.0 0.0 0.01 0.01 0.01 76 1008.5
20260505061710 49 42 0.0 2.0 0.01 0.01 0.01 77 1008.3
20260505060710 50 42 0.0 0.0 0.01 0.01 0.01 76 1008.3
20260505054710 50 42 0.0 0.0 0.01 0.01 0.01 73 1008.6
20260505051710 50 35 1.0 3.0 0.00 0.00 0.00 73 1008.6
20260505050711 51 41 0.0 2.0 0.00 0.00 0.00 73 1008.8
20260505040711 52 0 5.0 12.0 0.00 0.00 0.00 63 1008.7
20260505033711 53 15 2.0 3.0 0.00 0.00 0.00 62 1009.5
20260505031710 54 9 5.0 12.0 0.00 0.00 0.00 58 1009.0
20260505030710 54 329 5.0 13.0 0.00 0.00 0.00 55 1009.2
20260505025710 55 336 5.0 13.0 0.00 0.00 0.00 50 1008.7
20260505024711 55 347 6.0 14.0 0.00 0.00 0.00 47 1008.6
20260505022710 55 5 6.0 17.0 0.00 0.00 0.00 45 1007.7
20260505021710 55 323 9.0 15.0 0.00 0.00 0.00 46 1007.5
20260505020710 56 288 10.0 18.0 0.00 0.00 0.00 44 1007.5
20260505015710 56 5 9.0 20.0 0.00 0.00 0.00 44 1007.4
20260505014710 57 336 9.0 18.0 0.00 0.00 0.00 44 1007.4
20260505013710 57 336 14.0 20.0 0.00 0.00 0.00 43 1007.3
20260505012710 58 36 7.0 17.0 0.00 0.00 0.00 43 1006.9
20260505011711 58 0 10.0 22.0 0.00 0.00 0.00 43 1006.5
20260505010710 59 333 10.0 20.0 0.00 0.00 0.00 44 1006.3
20260505005711 59 0 10.0 20.0 0.00 0.00 0.00 43 1006.3
20260505004710 60 1 10.0 21.0 0.00 0.00 0.00 43 1006.0
20260505003710 61 17 13.0 22.0 0.00 0.00 0.00 42 1005.9
20260505002710 62 9 14.0 21.0 0.00 0.00 0.00 40 1005.6
20260505001710 63 334 12.0 21.0 0.00 0.00 0.00 38 1005.6
20260505000710 64 13 10.0 21.0 0.00 0.00 0.00 37 1005.8
20260504235711 65 15 12.0 24.0 0.00 0.00 0.00 35 1005.8
20260504234711 67 5 13.0 26.0 0.00 0.00 0.00 33 1005.8
20260504233711 68 15 10.0 20.0 0.00 0.00 0.00 33 1005.4
20260504232710 69 357 13.0 21.0 0.00 0.00 0.00 31 1005.2
20260504231710 70 8 9.0 18.0 0.00 0.00 0.00 32 1004.9
20260504230710 71 296 10.0 16.0 0.00 0.00 0.00 32 1004.7
20260504225710 70 20 11.0 23.0 0.00 0.00 0.00 34 1004.5
20260504224710 70 317 12.0 20.0 0.00 0.00 0.00 31 1004.3
20260504223710 71 313 12.0 17.0 0.00 0.00 0.00 29 1004.2